| time (UTC) | temp F | wind direction | speed knots | gust knots | rain 1hr in | rain 24hr in | rain mn in | humidity % | barometer mb |
| 20260504014402 | 51 | 223 | 4.3 | 9.6 | 0.00 | 0.00 | 0.00 | 59 | 1009.8 |
| 20260504013002 | 51 | 245 | 4.3 | 5.2 | 0.00 | 0.00 | 0.00 | 60 | 1009.8 |
| 20260504010501 | 54 | 177 | 8.7 | 9.6 | 0.00 | 0.00 | 0.00 | 49 | 1009.8 |
| 20260504005004 | 54 | 271 | 7.0 | 15.6 | 0.00 | 0.00 | 0.00 | 50 | 1009.8 |
| 20260504003502 | 53 | 226 | 6.1 | 12.2 | 0.00 | 0.00 | 0.00 | 51 | 1009.8 |
| 20260504002002 | 53 | 279 | 5.2 | 11.3 | 0.00 | 0.00 | 0.00 | 53 | 1009.8 |
| 20260504001001 | 52 | 264 | 2.6 | 11.3 | 0.00 | 0.00 | 0.00 | 56 | 1009.8 |
| 20260503235502 | 52 | 315 | 5.2 | 7.0 | 0.00 | 0.00 | 0.00 | 56 | 1009.8 |
| 20260503234002 | 53 | 274 | 7.8 | 13.9 | 0.00 | 0.00 | 0.00 | 55 | 1010.2 |
| 20260503232502 | 53 | 290 | 4.3 | 7.0 | 0.00 | 0.00 | 0.00 | 57 | 1010.2 |
| 20260503231002 | 53 | 248 | 5.2 | 10.4 | 0.00 | 0.00 | 0.00 | 58 | 1010.2 |
| 20260503225502 | 53 | 224 | 3.5 | 8.7 | 0.00 | 0.00 | 0.00 | 58 | 1010.2 |
| 20260503224402 | 53 | 239 | 4.3 | 12.2 | 0.00 | 0.00 | 0.00 | 56 | 1010.2 |
| 20260503223003 | 53 | 275 | 8.7 | 14.8 | 0.00 | 0.00 | 0.00 | 57 | 1010.2 |
| 20260503221503 | 52 | 303 | 5.2 | 13.0 | 0.00 | 0.00 | 0.00 | 59 | 1010.5 |
| 20260503220002 | 52 | 263 | 5.2 | 13.0 | 0.00 | 0.00 | 0.00 | 57 | 1010.2 |
| 20260503214502 | 52 | 262 | 8.7 | 14.8 | 0.00 | 0.00 | 0.00 | 57 | 1010.2 |
| 20260503213005 | 53 | 217 | 3.5 | 12.2 | 0.00 | 0.00 | 0.00 | 58 | 1009.8 |
| 20260503211503 | 53 | 251 | 7.8 | 9.6 | 0.00 | 0.00 | 0.00 | 57 | 1009.8 |
| 20260503210002 | 52 | 253 | 6.1 | 11.3 | 0.00 | 0.00 | 0.00 | 60 | 1010.2 |
| 20260503204902 | 52 | 255 | 5.2 | 8.7 | 0.00 | 0.00 | 0.00 | 60 | 1010.2 |
| 20260503203501 | 53 | 273 | 6.1 | 11.3 | 0.00 | 0.00 | 0.00 | 57 | 1010.2 |
| 20260503202402 | 52 | 238 | 12.2 | 15.6 | 0.00 | 0.00 | 0.00 | 56 | 1010.2 |
| 20260503200902 | 54 | 187 | 8.7 | 11.3 | 0.00 | 0.00 | 0.00 | 55 | 1010.5 |
| 20260503195402 | 54 | 270 | 6.1 | 13.0 | 0.00 | 0.00 | 0.00 | 53 | 1010.5 |
| 20260503193902 | 56 | 270 | 7.0 | 13.9 | 0.00 | 0.00 | 0.00 | 50 | 1010.8 |
| 20260503192402 | 54 | 282 | 14.8 | 14.8 | 0.00 | 0.00 | 0.00 | 50 | 1011.2 |
| 20260503190902 | 54 | 216 | 8.7 | 16.5 | 0.00 | 0.00 | 0.00 | 49 | 1011.5 |
| 20260503185502 | 54 | 220 | 6.1 | 14.8 | 0.00 | 0.00 | 0.00 | 48 | 1011.5 |
| 20260503184002 | 56 | 242 | 5.2 | 12.2 | 0.00 | 0.00 | 0.00 | 47 | 1011.5 |
| 20260503182502 | 55 | 215 | 7.0 | 14.8 | 0.00 | 0.00 | 0.00 | 42 | 1011.9 |
| 20260503180902 | 54 | 287 | 8.7 | 13.9 | 0.00 | 0.00 | 0.00 | 39 | 1012.2 |
| 20260503175501 | 55 | 256 | 11.3 | 11.3 | 0.00 | 0.00 | 0.00 | 39 | 1012.2 |
| 20260503174001 | 52 | 305 | 8.7 | 13.0 | 0.00 | 0.00 | 0.00 | 48 | 1012.9 |
| 20260503172502 | 51 | 277 | 5.2 | 12.2 | 0.00 | 0.00 | 0.00 | 57 | 1012.9 |
| 20260503171402 | 51 | 233 | 3.5 | 12.2 | 0.00 | 0.00 | 0.00 | 57 | 1013.2 |
| 20260503150501 | 53 | 277 | 10.4 | 10.4 | 0.00 | 0.00 | 0.00 | 55 | 1013.9 |
| 20260503130502 | 46 | 244 | 6.1 | 11.3 | 0.00 | 0.00 | 0.00 | 74 | 1014.2 |
| 20260503080404 | 32 | 245 | 0.0 | 0.0 | 0.00 | 0.00 | 0.00 | 90 | 1014.6 |
| 20260503072402 | 33 | 322 | 0.0 | 0.0 | 0.00 | 0.00 | 0.00 | 90 | 1014.6 |
| 20260503071002 | 33 | 282 | 0.0 | 0.9 | 0.00 | 0.00 | 0.00 | 90 | 1014.6 |
| 20260503054503 | 33 | 232 | 0.0 | 0.0 | 0.00 | 0.00 | 0.00 | 86 | 1014.9 |
| 20260503053502 | 33 | 237 | 0.0 | 0.0 | 0.00 | 0.00 | 0.00 | 85 | 1014.9 |
| 20260503052002 | 34 | 268 | 0.0 | 0.0 | 0.00 | 0.00 | 0.00 | 83 | 1014.9 |
| 20260503050502 | 34 | 166 | 0.0 | 0.0 | 0.00 | 0.00 | 0.00 | 81 | 1015.2 |
| 20260503045003 | 35 | 274 | 0.0 | 0.0 | 0.00 | 0.00 | 0.00 | 79 | 1015.2 |
| 20260503044001 | 36 | 225 | 0.0 | 0.0 | 0.00 | 0.00 | 0.00 | 78 | 1015.2 |
| 20260503042902 | 36 | 222 | 0.0 | 0.0 | 0.00 | 0.00 | 0.00 | 77 | 1015.2 |
| 20260503040003 | 39 | 279 | 0.0 | 0.0 | 0.00 | 0.00 | 0.00 | 74 | 1015.6 |
| 20260503035402 | 39 | 264 | 0.0 | 0.0 | 0.00 | 0.00 | 0.00 | 74 | 1015.2 |
| 20260503034003 | 40 | 216 | 0.0 | 0.0 | 0.00 | 0.00 | 0.00 | 73 | 1015.6 |
| 20260503032502 | 40 | 233 | 0.0 | 0.0 | 0.00 | 0.00 | 0.00 | 73 | 1015.6 |
| 20260503025502 | 40 | 286 | 0.0 | 0.0 | 0.00 | 0.00 | 0.00 | 72 | 1015.6 |
| 20260503023902 | 41 | 245 | 0.0 | 1.7 | 0.00 | 0.00 | 0.00 | 72 | 1015.6 |
| 20260503022402 | 41 | 228 | 0.0 | 1.7 | 0.00 | 0.00 | 0.00 | 71 | 1015.9 |
| 20260503020902 | 41 | 251 | 1.7 | 3.5 | 0.00 | 0.00 | 0.00 | 71 | 1015.9 |
| 20260503015401 | 41 | 258 | 1.7 | 3.5 | 0.00 | 0.00 | 0.00 | 71 | 1015.9 |